Location: Niedergestelen
(46.3129°N, 7.7822°E)
Time: 19:34:53
(UTC+00:00)

X-37B - Pass Details

Date: 21 September 2021
Orbit: 385 x 389 km, 45.0° (Epoch: 17 October)

Event Time Altitude Azimuth Distance (km) Brightness Sun altitude
Exits shadow 04:18:40 - 207° (SSW) 1,721 3.5 -10.4°
Reaches altitude 10° 04:19:38 10° 197° (SSW) 1,408 3.1 -10.2°
Maximum altitude 04:21:56 19° 150° (SSE) 1,011 2.9 -9.8°
Drops below altitude 10° 04:24:15 10° 104° (ESE) 1,415 4.6 -9.5°
Sets 04:26:43 0° 85° (E) 2,273 6.8 -9.0°
